Voltar ao catálogo

STARLINK-37789

AtivoComunicaçõesSSO
NORAD 69495·PAYLOAD·🇺🇸 United States

Lançado Jun 11, 2026 de Vandenberg Space Force Base

Loading…

Próximas Passagens (próximas 24 horas)

TLE

AtualizadoSource: CelesTrak SupGP

Época: Sep 15, 2026, 04:37 UTC

1 69495C 26131T   26258.19284722 -.00057691  00000+0 -17912-2 0  2583
2 69495  97.2835 279.1778 0001343  92.2873  31.6592 15.33462667    12

Acompanhe STARLINK-37789 em tempo real com AllMySat

Download on the App Store